CW1767 Weather Reports


Display with metric or nautical units.
time (UTC)temp
F
wind
direction
speed
MPH
gust
MPH
rain 1hr
in
rain 24hr
in
rain mn
in
humidity
%
barometer
mb
20260503054534 49 122 0.0 1.0 0.00 0.00 0.00 61 1011.8
20260503053032 50 122 0.0 1.0 0.00 0.00 0.00 59 1011.6
20260503051523 50 134 0.0 2.0 0.00 0.00 0.00 58 1011.2
20260503050023 50 129 0.0 1.0 0.00 0.00 0.00 59 1011.4
20260503044521 50 128 0.0 1.0 0.00 0.00 0.00 60 1011.4
20260503043019 50 128 0.0 0.0 0.00 0.00 0.00 59 1011.5
20260503041518 51 128 0.0 1.0 0.00 0.00 0.00 60 1011.6
20260503040015 51 128 0.0 0.0 0.00 0.00 0.00 59 1011.7
20260503034533 51 128 0.0 0.0 0.00 0.00 0.00 59 1011.6
20260503033015 51 128 0.0 1.0 0.00 0.00 0.00 58 1011.7
20260503031515 52 128 0.0 1.0 0.00 0.00 0.00 59 1011.5
20260503030014 52 128 0.0 1.0 0.00 0.00 0.00 59 1011.6
20260503024514 51 128 0.0 1.0 0.00 0.00 0.00 60 1011.4
20260503023014 51 128 0.0 0.0 0.00 0.00 0.00 62 1011.4
20260503021513 52 128 0.0 0.0 0.00 0.00 0.00 62 1011.7
20260503020012 52 128 0.0 0.0 0.00 0.00 0.00 61 1011.4
20260503014516 52 128 0.0 1.0 0.00 0.00 0.00 61 1011.4
20260503013016 52 128 0.0 1.0 0.00 0.00 0.00 62 1011.3
20260503011511 52 128 0.0 0.0 0.00 0.00 0.00 63 1011.5
20260503010010 52 128 0.0 0.0 0.00 0.00 0.00 61 1011.1
20260503004511 53 128 0.0 1.0 0.00 0.00 0.00 60 1011.0
20260503003010 53 128 0.0 0.0 0.00 0.00 0.00 60 1010.8
20260503001509 53 128 0.0 0.0 0.00 0.00 0.00 61 1010.8
20260503000008 54 128 0.0 0.0 0.00 0.00 0.00 59 1010.6
20260502234508 55 128 0.0 1.0 0.00 0.00 0.00 57 1010.7
20260502233008 55 128 0.0 1.0 0.00 0.00 0.00 56 1010.5
20260502231514 55 128 0.0 1.0 0.00 0.00 0.00 56 1010.4
20260502230008 55 128 0.0 1.0 0.00 0.00 0.00 55 1010.3
20260502224506 56 128 0.0 1.0 0.00 0.00 0.00 54 1010.5
20260502223006 57 128 0.0 1.0 0.00 0.00 0.00 51 1010.7
20260502221506 57 127 0.0 1.0 0.00 0.00 0.00 50 1010.7
20260502220009 57 127 0.0 2.0 0.00 0.00 0.00 46 1010.5
20260502214505 57 126 0.0 1.0 0.00 0.00 0.00 45 1010.5
20260502213005 57 125 0.0 2.0 0.00 0.00 0.00 45 1010.5
20260502211508 57 124 0.0 4.0 0.00 0.00 0.00 46 1010.4
20260502210004 58 134 0.0 2.0 0.00 0.00 0.00 47 1010.4
20260502204503 58 139 0.0 1.0 0.00 0.00 0.00 47 1010.4
20260502203002 58 134 0.0 4.0 0.00 0.00 0.00 46 1010.5
20260502201502 58 163 0.0 2.0 0.00 0.00 0.00 45 1010.4
20260502200002 59 129 1.0 4.0 0.00 0.00 0.00 46 1010.5
20260502194619 59 178 0.0 6.0 0.00 0.00 0.00 46 1010.4
20260502193101 58 156 0.0 2.0 0.00 0.00 0.00 48 1010.7
20260502191556 57 130 0.0 4.0 0.00 0.00 0.00 50 1010.9
20260502190104 58 144 0.0 4.0 0.00 0.00 0.00 50 1011.3
20260502184558 56 110 1.0 3.0 0.00 0.00 0.00 52 1011.2
20260502183052 56 121 1.0 3.0 0.00 0.00 0.00 52 1011.7
20260502181552 57 115 1.0 4.0 0.00 0.00 0.00 53 1011.8
20260502180116 57 130 0.0 3.0 0.00 0.00 0.00 55 1012.1
20260502163042 56 166 0.0 4.0 0.00 0.00 0.00 59 1012.4
20260502161541 55 111 1.0 3.0 0.00 0.00 0.00 60 1012.7
20260502151535 55 126 0.0 3.0 0.00 0.00 0.00 62 1013.0
20260502123012 51 180 0.0 1.0 0.00 0.00 0.00 83 1012.6
20260502121509 50 119 0.0 1.0 0.00 0.00 0.00 85 1012.7
20260502114505 49 129 0.0 1.0 0.00 0.00 0.00 90 1012.8
20260502113012 48 129 0.0 0.0 0.00 0.00 0.00 91 1012.7
20260502111503 47 129 0.0 0.0 0.00 0.00 0.00 90 1012.6
20260502110002 46 129 0.0 0.0 0.00 0.00 0.00 90 1012.6
20260502104502 46 129 0.0 0.0 0.00 0.00 0.00 90 1012.5
20260502103001 46 129 0.0 0.0 0.00 0.00 0.00 90 1012.4
20260502101500 46 129 0.0 0.0 0.00 0.00 0.00 90 1012.1
20260502100116 46 129 0.0 0.0 0.00 0.00 0.00 89 1012.0
20260502080105 47 129 0.0 0.0 0.00 0.00 0.00 87 1011.3
20260502070048 47 129 0.0 0.0 0.00 0.00 0.00 85 1011.4
20260502064546 48 129 0.0 0.0 0.00 0.00 0.00 84 1011.5
20260502063045 48 129 0.0 0.0 0.00 0.00 0.00 84 1011.8